Baton Rouge, LA

8:15 PM CDT on July 27, 2017 (GMT -0500)
Baton Rouge Metro-Ryan

Weather History for KBTR - October, 2014

Change the Weather History Date:

Wednesday, October 29, 2014

  Actual Average Record
Temperature  
Mean Temperature 71 °F 66 °F  
Max Temperature 83 °F 77 °F 88 °F (2009)
Min Temperature 59 °F 54 °F 33 °F (1952)
Degree Days  
Heating Degree Days 0 3  
Month to date heating degree days 8 38  
Since 1 July heating degree days 8 40  
Cooling Degree Days 6 3  
Month to date cooling degree days 187 172  
Year to date cooling degree days 2661 2743  
Growing Degree Days 22 (Base 50)    
Moisture  
Dew Point 64 °F    
Average Humidity 79    
Maximum Humidity 100    
Minimum Humidity 58    
Precipitation  
Precipitation 0.00 in 0.15 in 4.52 in (1993)
Month to date precipitation 2.35 4.40  
Year to date precipitation 52.53 50.65  
Snow  
Snow 0.00 in - - ()
Month to date snowfall 0.0  
Since 1 July snowfall 0.0  
Since 1 September snowfall 0.0  
Snow Depth 0.00 in    
Sea Level Pressure  
Sea Level Pressure 30.08 in    
Wind  
Wind Speed 4 mph (NW)    
Max Wind Speed 14 mph    
Max Gust Speed 23 mph    
Visibility 8 miles    
Events Fog    
T = Trace of Precipitation, MM = Missing Value Source: NWS Daily Summary

Daily Weather History Graph

Daily Weather History Graph

Search for Another Location

Airport or City:

Trip Planner

Search our weather history database for the weather conditions in past years. The results will help you decide how hot, cold, wet, or windy it might be!

Date:

Astronomy

Oct. 29, 2014 Rise Set
Actual Time 7:16 AM CDT 6:19 PM CDT
Civil Twilight 6:52 AM CDT 6:43 PM CDT
Nautical Twilight 6:23 AM CDT 7:12 PM CDT
Astronomical Twilight 5:55 AM CDT 7:40 PM CDT
Moon 12:30 PM CDT (10/29) 11:33 PM CDT (10/29)
Length of Visible Light 11h 51m
Length of Day
11h 02m
Waxing Crescent, 34% of the Moon is Illuminated
Oct 29
Waxing Crescent
Oct 30
First Quarter
Nov 6
Full
Nov 14
Last Quarter
Nov 22
New

Hourly Weather History & Observations

Time (CDT) Temp. Heat Index Dew Point Humidity Pressure Visibility Wind Dir Wind Speed Gust Speed Precip Events Conditions
12:53 AM 66.0 °F - 63.0 °F 90% 30.08 in 10.0 mi East 3.5 mph - N/A   Clear
1:53 AM 66.9 °F - 64.0 °F 90% 30.08 in 10.0 mi West 3.5 mph - N/A   Partly Cloudy
2:53 AM 64.9 °F - 63.0 °F 93% 30.06 in 9.0 mi Calm Calm - N/A   Clear
3:53 AM 64.0 °F - 62.1 °F 93% 30.06 in 6.0 mi Calm Calm - N/A   Clear
4:53 AM 63.0 °F - 62.1 °F 97% 30.05 in 6.0 mi Calm Calm - N/A   Clear
5:53 AM 62.1 °F - 60.1 °F 93% 30.06 in 5.0 mi Calm Calm - N/A   Partly Cloudy
6:48 AM 64.4 °F - 62.6 °F 94% 30.07 in 8.0 mi Calm Calm - N/A   Overcast
6:53 AM 64.0 °F - 62.1 °F 93% 30.07 in 2.0 mi Calm Calm - N/A   Overcast
7:13 AM 64.9 °F - 63.0 °F 93% 30.07 in 1.0 mi Calm Calm - N/A   Overcast
7:24 AM 64.0 °F - 63.0 °F 96% 30.08 in 0.5 mi Calm Calm - N/A Fog Fog
7:53 AM 66.0 °F - 64.9 °F 96% 30.09 in 0.5 mi Calm Calm - N/A Fog Fog
8:00 AM 66.0 °F - 64.9 °F 96% 30.09 in 0.2 mi Calm Calm - N/A Fog Fog
8:53 AM 68.0 °F - 66.9 °F 96% 30.10 in 2.0 mi WNW 3.5 mph - N/A   Overcast
9:00 AM 68.0 °F - 66.9 °F 96% 30.10 in 3.0 mi North - - N/A   Mist
9:09 AM 69.1 °F - 68.0 °F 96% 30.11 in 6.0 mi North - - N/A   Scattered Clouds
9:53 AM 73.0 °F - 68.0 °F 84% 30.12 in 9.0 mi NW 4.6 mph - N/A   Scattered Clouds
10:10 AM 73.0 °F - 69.1 °F 87% 30.12 in 10.0 mi NW 5.8 mph - N/A   Mostly Cloudy
10:53 AM 75.9 °F - 68.0 °F 76% 30.12 in 9.0 mi NW 4.6 mph - N/A   Mostly Cloudy
11:19 AM 77.0 °F - 69.1 °F 76% 30.11 in 10.0 mi West 9.2 mph - N/A   Scattered Clouds
11:53 AM 80.1 °F 82.3 °F 66.9 °F 64% 30.11 in 10.0 mi West 11.5 mph - N/A   Mostly Cloudy
12:53 PM 80.1 °F 82.1 °F 66.0 °F 62% 30.08 in 10.0 mi West 9.2 mph - N/A   Overcast
1:53 PM 80.1 °F 82.1 °F 66.0 °F 62% 30.05 in 10.0 mi West 10.4 mph - N/A   Mostly Cloudy
2:53 PM 82.9 °F 85.4 °F 66.9 °F 58% 30.03 in 10.0 mi WNW 11.5 mph 17.3 mph N/A   Mostly Cloudy
3:15 PM 80.1 °F 82.1 °F 66.0 °F 62% 30.02 in 10.0 mi NNW 9.2 mph - N/A   Mostly Cloudy
3:53 PM 78.1 °F - 66.9 °F 68% 30.03 in 10.0 mi NW 10.4 mph - N/A   Mostly Cloudy
4:53 PM 75.0 °F - 64.0 °F 69% 30.04 in 10.0 mi NW 8.1 mph - N/A   Mostly Cloudy
5:53 PM 73.0 °F - 64.0 °F 73% 30.05 in 10.0 mi Variable 4.6 mph - N/A   Mostly Cloudy
6:17 PM 72.0 °F - 63.0 °F 73% 30.05 in 10.0 mi North 8.1 mph - N/A   Overcast
6:53 PM 69.1 °F - 63.0 °F 81% 30.06 in 10.0 mi Variable 4.6 mph - N/A   Partly Cloudy
7:53 PM 66.9 °F - 62.1 °F 84% 30.07 in 10.0 mi Calm Calm - N/A   Clear
8:53 PM 66.0 °F - 61.0 °F 84% 30.09 in 10.0 mi NNW 3.5 mph - N/A   Clear
9:53 PM 64.9 °F - 57.9 °F 78% 30.09 in 10.0 mi Variable 3.5 mph - N/A   Overcast
10:53 PM 64.0 °F - 54.0 °F 70% 30.10 in 10.0 mi NNE 5.8 mph - N/A   Overcast
11:53 PM 61.0 °F - 53.1 °F 75% 30.10 in 10.0 mi NNE 3.5 mph - N/A   Clear